Time,TemperatureF,DewpointF,PressureIn,WindDirection,WindDirectionDegrees,WindSpeedMPH,WindSpeedGustMPH,Humidity,HourlyPrecipIn,Conditions,Clouds,dailyrainin,SoftwareType,DateUTC
2013-01-03 00:02:00,30.0,27.0,30.21,NNW,335,3.0,4.0,90,0.00,,,0.02,,2013-01-03 08:02:00,
2013-01-03 00:11:00,30.0,27.0,30.21,NNW,335,3.0,4.0,90,0.00,,,0.02,,2013-01-03 08:11:00,
2013-01-03 00:22:00,30.0,27.0,30.21,NNW,335,2.0,3.0,90,0.00,,,0.02,,2013-01-03 08:22:00,
2013-01-03 00:32:00,30.0,27.0,30.21,NNW,335,2.0,3.0,90,0.00,,,0.02,,2013-01-03 08:32:00,
2013-01-03 00:42:00,30.0,27.0,30.21,NNW,335,2.0,3.0,90,0.00,,,0.02,,2013-01-03 08:42:00,
2013-01-03 00:53:00,30.0,27.0,30.21,NNW,335,2.0,3.0,90,0.00,,,0.02,,2013-01-03 08:53:00,
2013-01-03 01:02:00,30.0,27.0,30.20,NNW,335,3.0,4.0,90,0.00,,,0.02,,2013-01-03 09:02:00,
2013-01-03 01:11:00,30.0,27.0,30.20,NNW,335,3.0,4.0,90,0.00,,,0.02,,2013-01-03 09:11:00,
2013-01-03 01:22:00,30.0,27.0,30.20,NNW,335,3.0,4.0,90,0.00,,,0.02,,2013-01-03 09:22:00,
2013-01-03 01:33:00,30.0,27.0,30.20,NNW,335,3.0,4.0,90,0.00,,,0.02,,2013-01-03 09:33:00,
2013-01-03 01:42:00,30.0,27.0,30.20,NNW,335,3.0,4.0,90,0.00,,,0.02,,2013-01-03 09:42:00,
2013-01-03 01:52:00,30.0,27.0,30.20,NNW,335,3.0,4.0,90,0.00,,,0.02,,2013-01-03 09:52:00,
2013-01-03 02:01:00,30.0,27.0,30.20,NNW,335,3.0,4.0,90,0.00,,,0.02,,2013-01-03 10:01:00,
2013-01-03 02:11:00,30.0,27.0,30.20,NNW,335,3.0,4.0,90,0.00,,,0.02,,2013-01-03 10:11:00,
2013-01-03 02:22:00,30.0,27.0,30.20,NNW,335,3.0,4.0,90,0.00,,,0.02,,2013-01-03 10:22:00,
2013-01-03 02:32:00,30.0,27.0,30.21,NNW,335,2.0,4.0,90,0.00,,,0.02,,2013-01-03 10:32:00,
2013-01-03 02:42:00,30.0,27.0,30.21,NNW,335,2.0,4.0,90,0.00,,,0.02,,2013-01-03 10:42:00,
2013-01-03 02:52:00,30.0,27.0,30.20,NNW,338,2.0,4.0,90,0.00,,,0.02,,2013-01-03 10:52:00,
2013-01-03 03:02:00,30.0,27.0,30.21,NNW,338,2.0,4.0,90,0.00,,,0.02,,2013-01-03 11:02:00,
2013-01-03 03:11:00,30.0,27.0,30.21,NNW,338,2.0,4.0,90,0.00,,,0.02,,2013-01-03 11:11:00,
2013-01-03 03:22:00,30.0,27.0,30.20,NNW,333,3.0,4.0,90,0.00,,,0.01,,2013-01-03 11:22:00,
2013-01-03 03:32:00,30.0,27.0,30.19,NNW,338,3.0,4.0,90,0.00,,,0.01,,2013-01-03 11:32:00,
2013-01-03 03:42:00,30.0,27.0,30.19,NNW,338,3.0,4.0,90,0.00,,,0.01,,2013-01-03 11:42:00,
2013-01-03 03:53:00,30.0,27.0,30.19,NNW,338,3.0,4.0,90,0.00,,,0.01,,2013-01-03 11:53:00,
2013-01-03 04:02:00,30.0,27.0,30.19,NNW,334,3.0,4.0,90,0.00,,,0.01,,2013-01-03 12:02:00,
2013-01-03 04:12:00,30.0,27.0,30.19,NNW,334,3.0,4.0,90,0.00,,,0.01,,2013-01-03 12:12:00,
2013-01-03 04:22:00,30.0,27.0,30.19,NNW,334,2.0,3.0,90,0.00,,,0.01,,2013-01-03 12:22:00,
2013-01-03 04:32:00,31.0,28.0,30.18,NNW,334,2.0,3.0,90,0.00,,,0.01,,2013-01-03 12:32:00,
2013-01-03 04:43:00,31.0,28.0,30.18,NNW,334,2.0,3.0,90,0.00,,,0.01,,2013-01-03 12:43:00,
2013-01-03 04:53:00,30.0,27.0,30.17,NNW,334,3.0,4.0,90,0.00,,,0.01,,2013-01-03 12:53:00,
2013-01-03 05:02:00,30.0,27.0,30.17,NNW,334,3.0,4.0,90,0.00,,,0.01,,2013-01-03 13:02:00,
2013-01-03 05:12:00,30.0,27.0,30.17,NNW,334,3.0,4.0,90,0.00,,,0.01,,2013-01-03 13:12:00,
2013-01-03 05:22:00,30.0,27.0,30.17,NNW,334,3.0,4.0,90,0.00,,,0.01,,2013-01-03 13:22:00,
2013-01-03 05:32:00,30.0,27.0,30.16,NNW,334,2.0,4.0,90,0.00,,,0.01,,2013-01-03 13:32:00,
2013-01-03 05:42:00,30.0,27.0,30.16,NNW,334,2.0,4.0,90,0.00,,,0.01,,2013-01-03 13:42:00,
2013-01-03 05:53:00,29.0,26.0,30.16,NNW,334,2.0,3.0,90,0.00,,,0.01,,2013-01-03 13:53:00,
2013-01-03 06:02:00,29.0,26.0,30.15,NNW,334,1.0,2.0,90,0.00,,,0.01,,2013-01-03 14:02:00,
2013-01-03 06:12:00,29.0,26.0,30.15,NNW,334,1.0,2.0,90,0.00,,,0.01,,2013-01-03 14:12:00,
2013-01-03 06:22:00,29.0,26.0,30.14,NNW,334,1.0,3.0,90,0.00,,,0.01,,2013-01-03 14:22:00,
2013-01-03 06:32:00,29.0,26.0,30.14,NNW,334,2.0,3.0,90,0.00,,,0.01,,2013-01-03 14:32:00,
2013-01-03 06:42:00,29.0,26.0,30.14,NNW,334,2.0,3.0,90,0.00,,,0.01,,2013-01-03 14:42:00,
2013-01-03 06:53:00,29.0,26.0,30.14,NNW,334,1.0,2.0,90,0.00,,,0.01,,2013-01-03 14:53:00,
2013-01-03 07:02:00,29.0,26.0,30.14,NNW,334,2.0,3.0,90,0.00,,,0.01,,2013-01-03 15:02:00,
2013-01-03 07:12:00,29.0,26.0,30.14,NNW,334,2.0,3.0,90,0.00,,,0.01,,2013-01-03 15:12:00,
2013-01-03 07:22:00,29.0,26.0,30.14,NNW,334,2.0,3.0,90,0.00,,,0.01,,2013-01-03 15:22:00,
2013-01-03 07:33:00,29.0,26.0,30.13,NNW,334,1.0,3.0,90,0.00,,,0.01,,2013-01-03 15:33:00,
2013-01-03 07:42:00,29.0,26.0,30.13,NNW,334,1.0,3.0,90,0.00,,,0.01,,2013-01-03 15:42:00,
2013-01-03 07:53:00,29.0,26.0,30.14,NNW,334,2.0,3.0,90,0.00,,,0.01,,2013-01-03 15:53:00,
2013-01-03 08:02:00,29.0,26.0,30.13,NNW,334,2.0,3.0,90,0.00,,,0.01,,2013-01-03 16:02:00,
2013-01-03 08:12:00,29.0,26.0,30.13,NNW,334,2.0,3.0,90,0.00,,,0.01,,2013-01-03 16:12:00,
2013-01-03 08:22:00,29.0,26.0,30.13,NNW,334,0.0,2.0,90,0.00,,,0.01,,2013-01-03 16:22:00,
2013-01-03 08:32:00,29.0,26.0,30.13,NNW,334,2.0,3.0,90,0.00,,,0.01,,2013-01-03 16:32:00,
2013-01-03 08:42:00,29.0,26.0,30.13,NNW,334,2.0,3.0,90,0.00,,,0.01,,2013-01-03 16:42:00,
2013-01-03 08:53:00,29.0,26.0,30.13,NNW,334,3.0,3.0,90,0.00,,,0.01,,2013-01-03 16:53:00,
2013-01-03 09:02:00,29.0,26.0,30.12,NNW,334,2.0,3.0,90,0.00,,,0.01,,2013-01-03 17:02:00,
2013-01-03 09:12:00,29.0,26.0,30.12,NNW,334,2.0,3.0,90,0.00,,,0.01,,2013-01-03 17:12:00,
2013-01-03 09:22:00,29.0,26.0,30.12,NNW,334,3.0,4.0,90,0.00,,,0.01,,2013-01-03 17:22:00,
2013-01-03 09:32:00,29.0,26.0,30.13,NNW,334,1.0,3.0,90,0.00,,,0.01,,2013-01-03 17:32:00,
2013-01-03 09:42:00,29.0,26.0,30.13,NNW,334,1.0,3.0,90,0.00,,,0.01,,2013-01-03 17:42:00,
2013-01-03 09:52:00,29.0,26.0,30.14,NNW,334,2.0,3.0,90,0.00,,,0.01,,2013-01-03 17:52:00,
2013-01-03 10:03:00,30.0,27.0,30.14,NNW,334,2.0,3.0,90,0.00,,,0.01,,2013-01-03 18:03:00,
2013-01-03 10:12:00,30.0,27.0,30.14,NNW,334,2.0,3.0,90,0.00,,,0.01,,2013-01-03 18:12:00,
2013-01-03 10:22:00,31.0,29.0,30.14,NNW,340,1.0,3.0,91,0.00,,,0.01,,2013-01-03 18:22:00,
2013-01-03 10:32:00,34.0,32.0,30.14,NW,324,2.0,4.0,91,0.00,,,0.01,,2013-01-03 18:32:00,
2013-01-03 10:42:00,34.0,32.0,30.14,NW,324,2.0,4.0,91,0.00,,,0.01,,2013-01-03 18:42:00,
2013-01-03 10:53:00,36.0,34.0,30.13,North,350,2.0,6.0,91,0.01,,,0.02,,2013-01-03 18:53:00,
2013-01-03 11:02:00,37.0,34.0,30.14,South,170,0.0,2.0,90,0.01,,,0.02,,2013-01-03 19:02:00,
2013-01-03 11:12:00,37.0,34.0,30.14,South,170,0.0,2.0,90,0.01,,,0.02,,2013-01-03 19:12:00,
2013-01-03 11:56:00,40.0,32.0,30.14,NNW,344,3.0,5.0,72,0.00,,,0.01,,2013-01-03 19:56:00,
2013-01-03 12:02:00,41.0,33.0,30.12,NE,35,1.0,6.0,72,0.00,,,0.01,,2013-01-03 20:02:00,
2013-01-03 12:12:00,41.0,33.0,30.12,NE,35,1.0,6.0,72,0.00,,,0.01,,2013-01-03 20:12:00,
2013-01-03 12:22:00,41.0,32.0,30.11,WNW,302,1.0,4.0,71,0.00,,,0.01,,2013-01-03 20:22:00,
2013-01-03 12:33:00,43.0,32.0,30.12,SSE,148,3.0,5.0,65,0.00,,,0.01,,2013-01-03 20:33:00,
2013-01-03 12:42:00,43.0,32.0,30.12,SSE,148,3.0,5.0,65,0.00,,,0.01,,2013-01-03 20:42:00,
2013-01-03 12:53:00,42.0,33.0,30.11,South,169,0.0,2.0,70,0.00,,,0.01,,2013-01-03 20:53:00,
2013-01-03 13:02:00,43.0,30.0,30.11,NNW,333,1.0,4.0,60,0.00,,,0.01,,2013-01-03 21:02:00,
2013-01-03 13:12:00,43.0,30.0,30.11,NNW,333,1.0,4.0,60,0.00,,,0.01,,2013-01-03 21:12:00,
2013-01-03 13:22:00,44.0,29.0,30.10,SSE,150,1.0,3.0,56,0.00,,,0.01,,2013-01-03 21:22:00,
2013-01-03 13:33:00,44.0,30.0,30.10,East,96,1.0,8.0,57,0.00,,,0.01,,2013-01-03 21:33:00,
2013-01-03 13:45:00,44.0,30.0,30.10,East,96,1.0,8.0,57,0.00,,,0.01,,2013-01-03 21:45:00,
2013-01-03 13:53:00,44.0,28.0,30.09,NW,315,2.0,6.0,54,0.00,,,0.01,,2013-01-03 21:53:00,
2013-01-03 14:02:00,44.0,28.0,30.09,East,85,1.0,4.0,54,0.00,,,0.01,,2013-01-03 22:02:00,
2013-01-03 14:12:00,44.0,28.0,30.09,East,85,1.0,4.0,54,0.00,,,0.01,,2013-01-03 22:12:00,
2013-01-03 14:22:00,42.0,30.0,30.09,ENE,67,2.0,7.0,62,0.00,,,0.01,,2013-01-03 22:22:00,
2013-01-03 14:32:00,41.0,31.0,30.10,East,89,0.0,9.0,66,0.00,,,0.01,,2013-01-03 22:32:00,
2013-01-03 14:42:00,41.0,31.0,30.10,East,89,0.0,9.0,66,0.00,,,0.01,,2013-01-03 22:42:00,
2013-01-03 14:52:00,39.0,30.0,30.10,East,89,0.0,2.0,69,0.00,,,0.01,,2013-01-03 22:52:00,
2013-01-03 15:02:00,38.0,30.0,30.10,NNW,333,1.0,2.0,73,0.00,,,0.01,,2013-01-03 23:02:00,
2013-01-03 15:12:00,38.0,30.0,30.10,NNW,333,1.0,2.0,73,0.00,,,0.01,,2013-01-03 23:12:00,
2013-01-03 15:22:00,38.0,31.0,30.10,NNW,333,0.0,2.0,75,0.00,,,0.01,,2013-01-03 23:22:00,
2013-01-03 15:32:00,37.0,31.0,30.09,NNW,334,1.0,2.0,78,0.00,,,0.01,,2013-01-03 23:32:00,
2013-01-03 15:42:00,37.0,31.0,30.09,NNW,334,1.0,2.0,78,0.00,,,0.01,,2013-01-03 23:42:00,
2013-01-03 15:53:00,37.0,31.0,30.09,NNW,334,0.0,3.0,78,0.00,,,0.01,,2013-01-03 23:53:00,
2013-01-03 16:02:00,37.0,31.0,30.11,NNW,334,1.0,1.0,78,0.00,,,0.01,,2013-01-04 00:02:00,
2013-01-03 16:12:00,37.0,31.0,30.11,NNW,334,1.0,1.0,78,0.00,,,0.01,,2013-01-04 00:12:00,
2013-01-03 16:22:00,37.0,31.0,30.12,NNW,334,0.0,2.0,79,0.00,,,0.01,,2013-01-04 00:22:00,
2013-01-03 16:32:00,36.0,30.0,30.11,NNW,334,1.0,2.0,79,0.00,,,0.01,,2013-01-04 00:32:00,
2013-01-03 16:42:00,36.0,30.0,30.11,NNW,334,1.0,2.0,79,0.00,,,0.01,,2013-01-04 00:42:00,
2013-01-03 16:52:00,36.0,31.0,30.10,NNW,334,2.0,3.0,81,0.00,,,0.01,,2013-01-04 00:52:00,
2013-01-03 17:02:00,36.0,31.0,30.11,North,355,1.0,3.0,81,0.00,,,0.01,,2013-01-04 01:02:00,
2013-01-03 17:12:00,36.0,31.0,30.11,North,355,1.0,3.0,81,0.00,,,0.01,,2013-01-04 01:12:00,
2013-01-03 17:22:00,36.0,31.0,30.10,North,351,1.0,3.0,82,0.00,,,0.01,,2013-01-04 01:22:00,
2013-01-03 17:32:00,36.0,31.0,30.10,North,351,1.0,2.0,82,0.00,,,0.01,,2013-01-04 01:32:00,
2013-01-03 17:42:00,36.0,31.0,30.10,North,351,1.0,2.0,82,0.00,,,0.01,,2013-01-04 01:42:00,
2013-01-03 17:52:00,36.0,31.0,30.09,North,350,1.0,3.0,82,0.00,,,0.01,,2013-01-04 01:52:00,
2013-01-03 18:02:00,36.0,31.0,30.09,NNW,344,0.0,2.0,83,0.00,,,0.01,,2013-01-04 02:02:00,
2013-01-03 18:12:00,36.0,31.0,30.09,NNW,344,0.0,2.0,83,0.00,,,0.01,,2013-01-04 02:12:00,
2013-01-03 18:22:00,36.0,31.0,30.09,NNW,344,1.0,3.0,82,0.00,,,0.01,,2013-01-04 02:22:00,
2013-01-03 18:32:00,36.0,31.0,30.09,NNW,344,0.0,2.0,83,0.00,,,0.01,,2013-01-04 02:32:00,
2013-01-03 18:42:00,36.0,31.0,30.09,NNW,344,0.0,2.0,83,0.00,,,0.01,,2013-01-04 02:42:00,
2013-01-03 18:53:00,36.0,31.0,30.09,NNW,344,1.0,2.0,83,0.00,,,0.01,,2013-01-04 02:53:00,
2013-01-03 19:02:00,37.0,32.0,30.10,NNW,344,0.0,2.0,82,0.00,,,0.01,,2013-01-04 03:02:00,
2013-01-03 19:12:00,37.0,32.0,30.10,NNW,344,0.0,2.0,82,0.00,,,0.01,,2013-01-04 03:12:00,
2013-01-03 19:22:00,37.0,32.0,30.10,NNW,344,1.0,2.0,82,0.00,,,0.01,,2013-01-04 03:22:00,
2013-01-03 19:32:00,37.0,32.0,30.10,NNW,344,0.0,2.0,82,0.00,,,0.01,,2013-01-04 03:32:00,
2013-01-03 19:42:00,37.0,32.0,30.10,NNW,344,0.0,2.0,82,0.00,,,0.01,,2013-01-04 03:42:00,
2013-01-03 19:52:00,36.0,31.0,30.10,NNW,344,0.0,2.0,83,0.00,,,0.01,,2013-01-04 03:52:00,
2013-01-03 20:02:00,36.0,32.0,30.10,NNW,344,1.0,2.0,84,0.00,,,0.01,,2013-01-04 04:02:00,
2013-01-03 20:12:00,36.0,32.0,30.10,NNW,344,1.0,2.0,84,0.00,,,0.01,,2013-01-04 04:12:00,
2013-01-03 20:22:00,36.0,32.0,30.10,NNW,344,1.0,3.0,85,0.00,,,0.01,,2013-01-04 04:22:00,
2013-01-03 20:32:00,36.0,32.0,30.09,NNW,344,1.0,3.0,86,0.00,,,0.01,,2013-01-04 04:32:00,
2013-01-03 20:42:00,36.0,32.0,30.09,NNW,344,1.0,3.0,86,0.00,,,0.01,,2013-01-04 04:42:00,
2013-01-03 20:52:00,36.0,32.0,30.09,NNW,344,1.0,3.0,86,0.00,,,0.01,,2013-01-04 04:52:00,
2013-01-03 21:03:00,36.0,32.0,30.09,NE,35,1.0,2.0,86,0.00,,,0.01,,2013-01-04 05:03:00,
2013-01-03 21:12:00,36.0,32.0,30.09,NE,35,1.0,2.0,86,0.00,,,0.01,,2013-01-04 05:12:00,
2013-01-03 21:22:00,37.0,34.0,30.09,NW,323,0.0,4.0,87,0.00,,,0.01,,2013-01-04 05:22:00,
2013-01-03 21:32:00,37.0,34.0,30.09,NW,323,0.0,2.0,87,0.00,,,0.01,,2013-01-04 05:32:00,
2013-01-03 21:42:00,37.0,34.0,30.09,NW,323,0.0,2.0,87,0.00,,,0.01,,2013-01-04 05:42:00,
2013-01-03 21:52:00,37.0,34.0,30.10,NW,306,2.0,4.0,87,0.00,,,0.01,,2013-01-04 05:52:00,
2013-01-03 22:02:00,38.0,34.0,30.10,NNW,346,2.0,5.0,87,0.00,,,0.01,,2013-01-04 06:02:00,
2013-01-03 22:11:00,38.0,34.0,30.10,NNW,346,2.0,5.0,87,0.00,,,0.01,,2013-01-04 06:11:00,
2013-01-03 22:22:00,40.0,36.0,30.10,SE,126,2.0,8.0,86,0.00,,,0.01,,2013-01-04 06:22:00,
2013-01-03 22:32:00,40.0,36.0,30.11,NNW,342,3.0,5.0,85,0.00,,,0.01,,2013-01-04 06:32:00,
2013-01-03 22:42:00,40.0,36.0,30.11,NNW,342,3.0,5.0,85,0.00,,,0.01,,2013-01-04 06:42:00,
2013-01-03 22:52:00,40.0,36.0,30.11,SE,133,0.0,2.0,84,0.00,,,0.01,,2013-01-04 06:52:00,
2013-01-03 23:01:00,40.0,36.0,30.11,NE,53,3.0,10.0,84,0.00,,,0.01,,2013-01-04 07:01:00,
2013-01-03 23:11:00,40.0,36.0,30.11,NE,53,3.0,10.0,84,0.00,,,0.01,,2013-01-04 07:11:00,
2013-01-03 23:22:00,40.0,36.0,30.11,NNW,341,0.0,2.0,84,0.00,,,0.01,,2013-01-04 07:22:00,
2013-01-03 23:32:00,40.0,36.0,30.11,NW,323,1.0,3.0,84,0.00,,,0.01,,2013-01-04 07:32:00,
2013-01-03 23:42:00,40.0,36.0,30.11,NW,323,1.0,3.0,84,0.00,,,0.01,,2013-01-04 07:42:00,
2013-01-03 23:52:00,40.0,36.0,30.11,West,263,0.0,3.0,84,0.01,,,0.02,,2013-01-04 07:52:00,